Content
SEND FEEDBACK

Daily
Averages
Monthly
Summary
Canada

BANFF, ALBERTA


Home > North America > Canada > Alberta
Elevation: 4583 feet     Latitude: 51 11N     Longitude: 115 34W

WEATHER
 
SELECT A DAY
Number of Records: 131,942;   Date Range: 1/1/95 - 7/22/14
 
SHARE

PRINT THIS DATA

[ ← Previous Day ]
WEATHER ALMANAC - MARCH 12, 2013
[ Next Day → ]
[ °C ]   °F
Weather ElementAverageHighLow
Temperature27.1 °F35.4 °F (5:00 pm)18 °F (5:00 am)
Dewpoint15.5 °F24.4 °F (9:00 pm)4.5 °F (2:00 am)
Humidity62.1 %77 % (9:00 pm)51 % (1:00 am)
Barometer30.05 in30.25 in (1:00 am)29.94 in (5:00 pm)
Wind Speed8.8 mph12.7 mph (9:00 pm)
Wind Gust20.7 mph (9:00 pm)
Weather ElementAverage
Wind DirectionWSW (239 °)

Weather ElementTotal
Precipitation---
Heating Degree Days38.3 (Base 65)
Averaged from 20 records on March 12, 2013
WEATHER CONDITIONS BREAKOUT
WIND DIRECTION BREAKOUT
WEATHER BY HOUR - MARCH 12, 2013
[ °C ]   °F
Local TimeTemperatureDewpointHumidityBarometerVisibilityWind DirectionWind SpeedGust SpeedPrecipitationEventsConditions
1:00 AM20.3 °F4.6 °F51 %30.25 inSW (230°)8.1 mph
2:00 AM19.9 °F4.5 °F51 %30.23 inSW (230°)8.1 mph
3:00 AM19.0 °F4.8 °F54 %30.22 inWSW (240°)6.9 mph
4:00 AM18.7 °F4.8 °F55 %30.19 inSW (230°)4.6 mph
5:00 AM18.0 °F5.4 °F58 %30.17 inSW (230°)8.1 mph
9:00 AM18.7 °F8.1 °F63 %30.12 inWSW (240°)6.9 mph
10:00 AM21.7 °F11.3 °F64 %30.09 inWSW (250°)6.9 mph
11:00 AM25.0 °F12.9 °F60 %30.06 inWSW (250°)6.9 mph
12:00 PM26.4 °F14.4 °F60 %30.05 inWSW (240°)9.2 mph
1:00 PM27.9 °F17.1 °F64 %30.03 inWSW (240°)10.4 mph
2:00 PM30.0 °F19.4 °F65 %30.02 inSW (230°)10.4 mph18.4 mph
3:00 PM30.2 °F20.8 °F68 %30.00 inSW (230°)11.5 mph18.4 mph
4:00 PM34.7 °F21.6 °F59 %29.95 inSW (230°)10.4 mph18.4 mph
5:00 PM35.4 °F21.4 °F57 %29.94 inSW (230°)11.5 mph19.6 mph
6:00 PM34.9 °F21.4 °F58 %29.94 inWSW (250°)8.1 mph
7:00 PM34.5 °F21.9 °F60 %29.94 inWest (270°)8.1 mph
8:00 PM32.0 °F23.2 °F70 %29.97 inWSW (250°)8.1 mph
9:00 PM30.7 °F24.4 °F77 %29.96 inSW (230°)12.7 mph20.7 mph
10:00 PM31.8 °F24.4 °F74 %29.95 inWSW (240°)11.5 mph20.7 mph
11:00 PM32.0 °F24.3 °F73 %29.94 inWSW (240°)8.1 mph
Hourly data recorded from CWZG, located miles away from Banff, Alberta







STORIES FROM OUR PARTNERS